| time (UTC) | temp C | wind direction | speed KPH | gust KPH | rain 1hr cm | rain 24hr cm | rain mn cm | humidity % | barometer mb |
| 20260504050001 | 13 | 190 | 0.0 | 4.8 | 0.00 | 0.00 | 0.00 | 46 | 1000.6 |
| 20260504044545 | 13 | 186 | 0.0 | 3.2 | 0.00 | 0.00 | 0.00 | 47 | 1000.9 |
| 20260504043043 | 13 | 166 | 0.0 | 4.8 | 0.00 | 0.00 | 0.00 | 47 | 1001.1 |
| 20260504041540 | 13 | 186 | 0.0 | 1.6 | 0.00 | 0.00 | 0.00 | 47 | 1001.4 |
| 20260504040041 | 13 | 191 | 0.0 | 1.6 | 0.00 | 0.00 | 0.00 | 47 | 1001.8 |
| 20260504034545 | 13 | 193 | 0.0 | 1.6 | 0.00 | 0.00 | 0.00 | 46 | 1002.0 |
| 20260504033033 | 14 | 191 | 0.0 | 3.2 | 0.00 | 0.00 | 0.00 | 46 | 1002.3 |
| 20260504031531 | 14 | 200 | 0.0 | 0.0 | 0.00 | 0.00 | 0.00 | 45 | 1002.5 |
| 20260504030037 | 15 | 201 | 0.0 | 1.6 | 0.00 | 0.00 | 0.00 | 42 | 1002.6 |
| 20260504024513 | 15 | 211 | 0.0 | 1.6 | 0.00 | 0.00 | 0.00 | 41 | 1002.6 |
| 20260504023009 | 16 | 250 | 0.0 | 0.0 | 0.00 | 0.00 | 0.00 | 38 | 1002.7 |
| 20260504021505 | 17 | 250 | 0.0 | 1.6 | 0.00 | 0.00 | 0.00 | 35 | 1002.7 |
| 20260504020001 | 17 | 215 | 0.0 | 1.6 | 0.00 | 0.00 | 0.00 | 33 | 1002.7 |
| 20260504014600 | 18 | 233 | 0.0 | 4.8 | 0.00 | 0.00 | 0.00 | 32 | 1002.7 |
| 20260504013059 | 18 | 260 | 1.6 | 4.8 | 0.00 | 0.00 | 0.00 | 31 | 1002.9 |
| 20260504011555 | 19 | 267 | 0.0 | 8.0 | 0.00 | 0.00 | 0.00 | 30 | 1002.9 |
| 20260504010057 | 20 | 257 | 0.0 | 6.4 | 0.00 | 0.00 | 0.00 | 29 | 1002.9 |
| 20260504004538 | 20 | 276 | 3.2 | 11.3 | 0.00 | 0.00 | 0.00 | 28 | 1003.0 |
| 20260504003043 | 20 | 262 | 6.4 | 16.1 | 0.00 | 0.00 | 0.00 | 28 | 1003.0 |
| 20260504001547 | 21 | 205 | 1.6 | 11.3 | 0.00 | 0.00 | 0.00 | 28 | 1003.1 |
| 20260504000035 | 21 | 274 | 4.8 | 17.7 | 0.00 | 0.00 | 0.00 | 26 | 1003.2 |
| 20260503234535 | 21 | 285 | 4.8 | 16.1 | 0.00 | 0.00 | 0.00 | 25 | 1003.2 |
| 20260503233034 | 21 | 260 | 8.0 | 17.7 | 0.00 | 0.00 | 0.00 | 24 | 1003.3 |
| 20260503231544 | 21 | 321 | 3.2 | 11.3 | 0.00 | 0.00 | 0.00 | 25 | 1003.6 |
| 20260503230030 | 21 | 264 | 8.0 | 17.7 | 0.00 | 0.00 | 0.00 | 25 | 1003.6 |
| 20260503224511 | 21 | 302 | 4.8 | 19.3 | 0.00 | 0.00 | 0.00 | 25 | 1003.7 |
| 20260503223020 | 21 | 285 | 6.4 | 24.1 | 0.00 | 0.00 | 0.00 | 24 | 1003.7 |
| 20260503221558 | 21 | 260 | 3.2 | 17.7 | 0.00 | 0.00 | 0.00 | 25 | 1003.8 |
| 20260503214558 | 21 | 278 | 6.4 | 19.3 | 0.00 | 0.00 | 0.00 | 27 | 1003.8 |
| 20260503213123 | 21 | 259 | 9.7 | 20.9 | 0.00 | 0.00 | 0.00 | 27 | 1003.9 |
| 20260503211618 | 21 | 332 | 3.2 | 9.7 | 0.00 | 0.00 | 0.00 | 28 | 1004.0 |
| 20260503210052 | 21 | 295 | 6.4 | 27.4 | 0.00 | 0.00 | 0.00 | 28 | 1004.1 |
| 20260503204602 | 21 | 292 | 8.0 | 17.7 | 0.00 | 0.00 | 0.00 | 31 | 1004.2 |
| 20260503203049 | 21 | 332 | 3.2 | 17.7 | 0.00 | 0.00 | 0.00 | 29 | 1004.3 |
| 20260503201531 | 21 | 13 | 8.0 | 20.9 | 0.00 | 0.00 | 0.00 | 26 | 1004.6 |
| 20260503200030 | 21 | 267 | 3.2 | 14.5 | 0.00 | 0.00 | 0.00 | 30 | 1004.6 |
| 20260503194528 | 21 | 23 | 4.8 | 19.3 | 0.00 | 0.00 | 0.00 | 26 | 1004.9 |
| 20260503193025 | 21 | 281 | 1.6 | 20.9 | 0.00 | 0.00 | 0.00 | 28 | 1005.0 |
| 20260503191523 | 21 | 359 | 6.4 | 19.3 | 0.00 | 0.00 | 0.00 | 31 | 1005.0 |
| 20260503190021 | 21 | 332 | 6.4 | 16.1 | 0.00 | 0.00 | 0.00 | 33 | 1005.0 |
| 20260503184518 | 20 | 262 | 6.4 | 17.7 | 0.00 | 0.00 | 0.00 | 34 | 1005.1 |
| 20260503183016 | 20 | 347 | 4.8 | 22.5 | 0.00 | 0.00 | 0.00 | 35 | 1005.2 |
| 20260503181501 | 20 | 302 | 8.0 | 22.5 | 0.00 | 0.00 | 0.00 | 37 | 1005.3 |
| 20260503180100 | 20 | 284 | 4.8 | 17.7 | 0.00 | 0.00 | 0.00 | 38 | 1005.3 |
| 20260503174613 | 20 | 267 | 8.0 | 17.7 | 0.00 | 0.00 | 0.00 | 38 | 1005.3 |
| 20260503173130 | 20 | 252 | 1.6 | 12.9 | 0.00 | 0.00 | 0.00 | 39 | 1005.5 |
| 20260503171554 | 20 | 255 | 4.8 | 24.1 | 0.00 | 0.00 | 0.00 | 39 | 1005.5 |
| 20260503081518 | 15 | 197 | 3.2 | 20.9 | 0.00 | 0.00 | 0.00 | 44 | 1004.7 |
| 20260503071512 | 16 | 217 | 4.8 | 19.3 | 0.00 | 0.00 | 0.00 | 47 | 1005.4 |